Location: Fort Wayne
(41.1310°N, 85.1290°W)
Time: 03:41:46
(UTC-04:00)

Tiros 1 despin weight - Visible Passes

Search period start: 28 May 2018 00:00
Search period end: 07 June 2018 00:00
Orbit: 594 x 643 km, 48.2° (Epoch: 27 May)

Date Brightness Start Highest point End Pass type
(mag) Time Alt. Az. Time Alt. Az. Time Alt. Az.
29 May ? 05:30:06 10° S 05:33:26 19° SE 05:36:45 10° E visible
31 May ? 04:23:27 10° SSE 04:25:40 13° SE 04:27:52 10° ESE visible
01 Jun ? 04:39:18 15° S 04:42:06 26° SE 04:45:57 10° E visible
02 Jun ? 04:55:15 16° SSW 04:58:41 47° SE 05:03:10 10° ENE visible
03 Jun ? 03:34:06 18° SE 03:34:18 18° SE 03:37:28 10° E visible
03 Jun ? 05:11:09 13° WSW 05:15:23 83° SSE 05:20:04 10° ENE visible
04 Jun ? 03:49:56 31° SSE 03:50:48 34° SE 03:55:01 10° ENE visible
04 Jun ? 05:27:35 10° WSW 05:32:14 63° NNW 05:36:52 10° ENE visible
05 Jun ? 04:05:42 36° SSW 04:07:25 62° SE 04:12:03 10° ENE visible
06 Jun ? 02:44:22 21° ESE 02:44:22 21° ESE 02:46:42 10° E visible
06 Jun ? 04:21:25 24° WSW 04:24:12 80° NNW 04:28:53 10° ENE visible
